Wisconsin Rapids, WI

6:22 PM CDT on April 28, 2017 (GMT -0500)
Alexander Field South Wood County

Weather History for KISW - January, 2014

Change the Weather History Date:

Thursday, January 16, 2014

  Actual Average Record
Temperature  
Mean Temperature 18 °F -  
Max Temperature 28 °F 23 °F 48 °F (1973)
Min Temperature 9 °F 3 °F -30 °F (1972)
Degree Days  
Heating Degree Days 46    
Moisture  
Dew Point 16 °F    
Average Humidity 81    
Maximum Humidity 93    
Minimum Humidity 68    
Precipitation  
Precipitation 0.04 in - - ()
Sea Level Pressure  
Sea Level Pressure 29.49 in    
Wind  
Wind Speed 12 mph (WSW)    
Max Wind Speed 21 mph    
Max Gust Speed 30 mph    
Visibility 6 miles    
Events Fog , Snow    
Averages and records for this station are not official NWS values.
T = Trace of Precipitation, MM = Missing Value Source: NWS Daily Summary

Daily Weather History Graph

Daily Weather History Graph

Search for Another Location

Airport or City:

Trip Planner

Search our weather history database for the weather conditions in past years. The results will help you decide how hot, cold, wet, or windy it might be!

Date:

Astronomy

Jan. 16, 2014 Rise Set
Actual Time 7:31 AM CST 4:47 PM CST
Civil Twilight 6:59 AM CST 5:19 PM CST
Nautical Twilight 6:23 AM CST 5:55 PM CST
Astronomical Twilight 5:48 AM CST 6:30 PM CST
Moon 5:43 PM CST (1/16) 7:21 AM CST (1/16)
Length of Visible Light 10h 20m
Length of Day
9h 15m
Full, 100% of the Moon is Illuminated
Jan 16
Full
Jan 23
Last Quarter
Jan 30
New
Feb 6
First Quarter
Feb 14
Full

Hourly Weather History & Observations

Time (CST) Temp. Windchill Dew Point Humidity Pressure Visibility Wind Dir Wind Speed Gust Speed Precip Events Conditions
12:20 AM 15.1 °F 1.1 °F 10.0 °F 80% 29.53 in 10.0 mi South 12.7 mph - N/A   Overcast
12:54 AM 17.1 °F 2.5 °F 10.9 °F 77% 29.56 in 10.0 mi South 15.0 mph 21.9 mph N/A   Overcast
1:54 AM 19.0 °F 4.5 °F 12.9 °F 77% 29.55 in 10.0 mi SSW 16.1 mph 24.2 mph N/A   Overcast
2:54 AM 19.0 °F 6.8 °F 12.9 °F 77% 29.52 in 10.0 mi SSW 11.5 mph - N/A   Mostly Cloudy
3:54 AM 19.9 °F 7.9 °F 14.0 °F 78% 29.48 in 10.0 mi SSW 11.5 mph - N/A   Overcast
4:06 AM 19.9 °F 7.3 °F 14.0 °F 78% 29.42 in 10.0 mi SSW 12.7 mph 20.7 mph N/A   Overcast
4:54 AM 21.0 °F 9.3 °F 15.1 °F 78% 29.46 in 10.0 mi SSW 11.5 mph - N/A   Overcast
5:20 AM 21.0 °F 8.6 °F 15.1 °F 78% 29.40 in 10.0 mi SSW 12.7 mph - N/A   Overcast
5:51 AM 21.2 °F 9.5 °F 15.8 °F 80% 29.40 in 10.0 mi SSW 11.5 mph - N/A   Overcast
5:54 AM 21.9 °F 10.4 °F 15.1 °F 75% 29.45 in 10.0 mi SSW 11.5 mph - N/A   Overcast
6:01 AM 21.9 °F 10.4 °F 16.0 °F 78% 29.40 in 10.0 mi SSW 11.5 mph - N/A   Overcast
6:43 AM 21.9 °F 10.4 °F 16.0 °F 78% 29.39 in 10.0 mi SSW 11.5 mph - N/A   Overcast
6:54 AM 21.9 °F 11.0 °F 16.0 °F 78% 29.45 in 10.0 mi SSW 10.4 mph - N/A   Overcast
7:31 AM 21.9 °F 11.0 °F 18.0 °F 85% 29.39 in 10.0 mi SSW 10.4 mph - N/A   Overcast
7:54 AM 23.0 °F 12.4 °F 19.0 °F 85% 29.44 in 10.0 mi SSW 10.4 mph - N/A   Overcast
8:54 AM 24.1 °F 14.4 °F 19.0 °F 81% 29.45 in 10.0 mi SSW 9.2 mph - N/A   Overcast
9:54 AM 25.0 °F 16.3 °F 21.0 °F 85% 29.45 in 10.0 mi SSW 8.1 mph - N/A   Overcast
10:54 AM 27.0 °F 18.0 °F 21.0 °F 78% 29.44 in 10.0 mi SSW 9.2 mph - N/A   Overcast
11:50 AM 26.6 °F 19.1 °F 23.0 °F 86% 29.37 in 2.5 mi SSW 6.9 mph - 0.00 in Snow Light Snow
11:54 AM 27.0 °F 18.7 °F 24.1 °F 89% 29.42 in 3.0 mi SSW 8.1 mph - 0.00 in Snow Light Snow
12:10 PM 28.0 °F 20.0 °F 24.1 °F 85% 29.37 in 3.0 mi SSW 8.1 mph - 0.00 in Snow Light Snow
12:18 PM 28.0 °F 20.8 °F 25.0 °F 88% 29.36 in 2.0 mi SSW 6.9 mph - 0.01 in Snow Light Snow
12:31 PM 28.0 °F 20.0 °F 25.0 °F 88% 29.36 in 1.0 mi SSW 8.1 mph - 0.01 in Snow Light Snow
12:34 PM 28.0 °F 21.7 °F 25.0 °F 88% 29.36 in 0.5 mi SSW 5.8 mph - 0.01 in Fog , Snow Snow
12:51 PM 28.4 °F 21.2 °F 26.6 °F 93% 29.36 in 0.8 mi SW 6.9 mph - 0.02 in Snow Light Snow
12:54 PM 28.0 °F 21.7 °F 26.1 °F 92% 29.41 in 2.5 mi WSW 5.8 mph - 0.02 in Snow Light Snow
1:01 PM 28.0 °F 20.8 °F 26.1 °F 92% 29.37 in 6.0 mi SW 6.9 mph - 0.00 in   Overcast
1:51 PM 26.6 °F 13.8 °F 24.8 °F 93% 29.39 in 2.5 mi West 17.3 mph 28.8 mph 0.01 in Snow Light Snow
1:54 PM 27.0 °F 16.1 °F 24.1 °F 89% 29.44 in 2.5 mi WNW 12.7 mph 25.3 mph 0.01 in Snow Light Snow
2:14 PM 26.1 °F 15.0 °F 23.0 °F 88% 29.41 in 3.0 mi WNW 12.7 mph - 0.00 in Snow Light Snow
2:21 PM 26.1 °F 12.0 °F 21.9 °F 84% 29.41 in 1.8 mi NW 20.7 mph 25.3 mph 0.01 in Snow Light Snow
2:28 PM 25.0 °F 12.6 °F 21.0 °F 85% 29.42 in 0.8 mi WNW 15.0 mph 25.3 mph 0.01 in Snow Light Snow
2:30 PM 25.0 °F 12.2 °F 21.0 °F 85% 29.42 in 0.8 mi WNW 16.1 mph 25.3 mph 0.01 in Snow Light Snow
2:40 PM 25.0 °F 12.6 °F 21.0 °F 85% 29.42 in 1.2 mi NW 15.0 mph 21.9 mph 0.01 in Snow Light Snow
2:50 PM 24.8 °F 13.4 °F 19.4 °F 80% 29.43 in 3.0 mi WNW 12.7 mph 23.0 mph 0.01 in Snow Light Snow
2:54 PM 25.0 °F 14.8 °F 19.9 °F 81% 29.48 in 4.0 mi NW 10.4 mph 21.9 mph 0.01 in Snow Light Snow
3:06 PM 25.0 °F 14.8 °F 19.9 °F 81% 29.44 in 5.0 mi NW 10.4 mph 19.6 mph 0.00 in Snow Light Snow
3:42 PM 25.0 °F 13.6 °F 18.0 °F 75% 29.47 in 10.0 mi WNW 12.7 mph - 0.00 in   Overcast
3:54 PM 25.0 °F 14.2 °F 18.0 °F 75% 29.52 in 10.0 mi WNW 11.5 mph - 0.00 in   Overcast
4:54 PM 21.9 °F 11.0 °F 12.9 °F 68% 29.57 in 10.0 mi WNW 10.4 mph - 0.00 in   Overcast
5:41 PM 18.0 °F 1.7 °F 10.9 °F 74% 29.56 in 5.0 mi NW 19.6 mph - 0.00 in Snow Light Snow
5:54 PM 18.0 °F 1.7 °F 10.9 °F 74% 29.62 in 8.0 mi WNW 19.6 mph 24.2 mph 0.00 in Snow Light Snow
6:49 PM 15.8 °F 1.4 °F 10.4 °F 79% 29.60 in 2.5 mi NNW 13.8 mph - 0.00 in Snow Light Snow
6:54 PM 15.1 °F -1.6 °F 9.0 °F 77% 29.66 in 2.0 mi NW 18.4 mph 29.9 mph 0.00 in Snow Light Snow
7:13 PM 14.0 °F -3.9 °F 8.1 °F 77% 29.61 in 3.0 mi WNW 20.7 mph 29.9 mph 0.00 in Snow Light Snow
7:34 PM 12.9 °F -4.9 °F 6.1 °F 74% 29.62 in 5.0 mi NW 19.6 mph 29.9 mph 0.00 in Snow Light Snow
7:54 PM 12.0 °F -5.6 °F 6.1 °F 77% 29.69 in 4.0 mi NW 18.4 mph - 0.00 in Snow Light Snow
8:06 PM 12.0 °F -5.1 °F 6.1 °F 77% 29.64 in 2.0 mi NW 17.3 mph 27.6 mph 0.00 in Snow Light Snow
8:50 PM 10.4 °F -6.0 °F 5.0 °F 79% 29.66 in 3.0 mi NW 15.0 mph - 0.00 in Snow Light Snow
8:54 PM 10.9 °F -6.5 °F 3.9 °F 73% 29.72 in 4.0 mi NW 17.3 mph 25.3 mph 0.00 in Snow Light Snow
9:54 PM 10.0 °F -2.9 °F 3.0 °F 73% 29.73 in 4.0 mi WNW 9.2 mph - 0.00 in Snow Light Snow
10:54 PM 9.0 °F -8.5 °F 1.9 °F 73% 29.74 in 7.0 mi NW 16.1 mph 21.9 mph 0.00 in Snow Light Snow
11:54 PM 9.0 °F -5.1 °F 1.9 °F 73% 29.74 in 8.0 mi WNW 10.4 mph - 0.00 in Snow Light Snow